Hlavní strana
METAR-TAF:

METAR-TAF

Letiště :

Notodden, Norsko

zeměpisná šířka: 59-34N, zeměpisná délka: 009-13E, výška: 19 m

Aktuální stav počasí

Zpráva byla vytvořena před 3 hodinami a 18 minutami, v 15:20 UTC
Severoseverozápadní vítr 5 kt, proměnlivý mezi západoseverozápadním a severoseverovýchodním
Teplota 6°C
Vlhkost vzduchu 20%
Tlak 1019 hPa
Viditelnost 10 km a více
Žádná oblačnost pod 1500 m, nevyskytují se cumulonimby.

METAR: ENNO 071520Z 34005KT 300V030 CAVOK 06/M15 Q1019

Čas: 19:38 (18:38 UTC)


TAF: chybějící

Stav a předpovědi počasí z více než 4 000 letišť (zprávy METAR a TAF).

Červené a žluté tečky na mapě představují dostupné meteorologické stanice.

Když kurzor umístíte na tečku, zobrazí se název stanice.

Pak kliknutím zobrazíte stav a předpověď počasí.

Chcete-li změnit mapu, kliknutím na zelené tlačítko se znaménkem +mapu přiblížíte, kliknutím na zelené tlačítko se znaménkem – mapu oddálíte a kliknutím na zelené šipky přejdete na sousední mapy.


METAR-TAF: